Location: Unspecified
(47.2333°N, 39.7000°E)
Time: 04:28:24
(UTC+00:00)

ISS - Pass Details

Date: 06 March 2021
Orbit: 418 x 422 km, 51.6° (Epoch: 16 April)

Event Time Altitude Azimuth Distance (km) Brightness Sun altitude
Exits shadow 03:07:39 - 296° (WNW) 1,565 -1.4 -8.3°
Reaches altitude 10° 03:07:49 10° 296° (WNW) 1,501 -1.5 -8.3°
Maximum altitude 03:11:11 79° 23° (NNE) 431 -3.7 -7.7°
Drops below altitude 10° 03:14:33 10° 111° (ESE) 1,496 0.4 -7.2°
Sets 03:16:38 0° 112° (ESE) 2,358 1.6 -6.8°
